星链-3683 (STARLINK-3683 )
导读
STARLINK-3683是美国SpaceX星链互联网卫星星座中的一颗卫星,于2022年7月17日发射升空,归属于美国,星链计划旨在通过低轨卫星星座为全球提供高速互联网接入服务,该卫星在近地轨道运行,为全球范围内尤其是偏远区域提供网络通信支持。
Basic Information
目录编号:
53167
目录名称:
STARLINK-3683
国际标识:
2022-083AM
轨道中心:
EARTH
卫星名称:
星链-3683
卫星全名:
星链-3683 (STARLINK-3683 )
卫星状态:
在轨 (已飞行1510 天)
发射日期:
2022-07-17 UTC
国别 :
美国
(US)
星等 :
--
Orbit Information
| 数据来源 | 国际轨道数据 |
| 星历时间: | 2026-09-03T00:00:02+0800 1天前 查看轨道信息 |
| 半长轴: | 6842.689km |
| 偏心率: | 0.000084 |
| 轨道倾角: | 53.161° |
| 近地点辐角 | 123.286° |
| 升交点赤经 | 71.780° |
| 平近点角 | 169.456° |
| 近地点: | 463.977km |
| 远地点: | 465.127km |
| 周期: | 93.886分钟 |
| 每日圈数: | 15.337784 |
Detailed Information
固有亮度:
5
最大亮度:
2.5
卫星平台:
Starlink v1.5
覆盖范围:
全球
运营商:
太空探索技术公司
运营商所在国:
美国
制造商(研发单位):
太空探索技术公司
制造商所在国:
美国
使用方式:
暂无
Satellite Introduction
星链(Starlink)计划是由太空探索技术公司(SpaceX)提出的一个巨型低轨卫星互联网星座项目,计划在2019年至2024年间在太空搭建由约1.2万颗卫星组成的“星链”网络,其中1584颗将部署在地球上空550千米处的近地轨道,并从2020年开始工作。该卫星仍在工作。
2D Orbit Map
3D Orbit Map
Orbit Altitude Analysis Chart
Orbit Inclination Analysis Chart
Orbit Comprehensive Analysis Chart
View Comprehensive ChartConjunction Data List
| Event ID | Objects | TCA | Miss Dist (km) | Collision Risk Probability | Collision Risk Index (CRI) | Action |
|---|---|---|---|---|---|---|
| CDM_260903-193405-316706-574421 |
STARLINK-3683
(53167)
STARLINK-35173
(65744) | 2026-09-03T 19:34:40+0000 |
1.356 km
极远距离 | 8.138435E-6 低风险 | 0.53 | |
| CDM_260903-151505-316706-171021 |
STARLINK-3683
(53167)
STARLINK-32404
(61710) | 2026-09-03T 15:15:08+0000 |
1.520 km
极远距离 | 4.028504E-6 低风险 | 0.47 | |
| CDM_260904-110105-316706-916121 |
STARLINK-3683
(53167)
STARLINK-37311
(69161) | 2026-09-04T 11:01:01+0000 |
2.521 km
极远距离 | 1.174242E-6 低风险 | 0.36 | |
| CDM_260905-014605-316706-231121 |
STARLINK-3683
(53167)
STARLINK-32700
(62311) | 2026-09-05T 01:46:02+0000 |
1.483 km
极远距离 | 1.105977E-6 低风险 | 0.36 | |
| CDM_260905-172805-316706-637421 |
STARLINK-3683
(53167)
STARLINK-35831
(66374) | 2026-09-05T 17:28:07+0000 |
2.434 km
极远距离 | 1.027714E-6 低风险 | 0.35 | |
| CDM_260903-125405-316706-171021 |
STARLINK-3683
(53167)
STARLINK-32404
(61710) | 2026-09-03T 12:54:25+0000 |
2.723 km
极远距离 | 1.025234E-6 低风险 | 0.35 | |
| CDM_260905-001105-316706-807921 |
STARLINK-3683
(53167)
STARLINK-37063
(68079) | 2026-09-05T 00:11:57+0000 |
1.418 km
极远距离 | 9.588867E-7 极低风险 | 0.35 | |
| CDM_260903-112505-257805-316721 |
STARLINK-3833
(52578)
STARLINK-3683
(53167) | 2026-09-03T 11:25:03+0000 |
2.530 km
极远距离 | 6.508744E-7 极低风险 | 0.31 | |
| CDM_260903-121105-257805-316721 |
STARLINK-3833
(52578)
STARLINK-3683
(53167) | 2026-09-03T 12:11:58+0000 |
2.714 km
极远距离 | 5.895999E-7 极低风险 | 0.3 |

